EW5678 Weather Reports


Display with metric or nautical units.
time (UTC)temp
F
wind
direction
speed
MPH
gust
MPH
rain 1hr
in
rain 24hr
in
rain mn
in
humidity
%
barometer
mb
20260904003046 76 220 10.0 13.0 0.00 0.05 0.00 88 1002.1
20260904002146 76 219 9.0 13.0 0.00 0.05 0.00 88 1002.1
20260904001246 76 220 9.0 13.0 0.00 0.05 0.00 86 1002.0
20260904000348 76 217 6.0 12.0 0.00 0.05 0.00 87 1001.8
20260903235446 76 215 6.0 10.0 0.00 0.05 0.05 88 1001.6
20260903234547 76 205 5.0 10.0 0.00 0.05 0.05 88 1001.5
20260903233646 76 188 5.0 8.0 0.00 0.05 0.05 88 1001.5
20260903232746 76 184 5.0 9.0 0.00 0.05 0.05 87 1001.5
20260903231846 77 176 5.0 9.0 0.00 0.05 0.05 86 1001.6
20260903230946 77 207 4.0 7.0 0.00 0.05 0.05 85 1001.8
20260903230046 78 222 5.0 9.0 0.00 0.05 0.05 85 1001.8
20260903223346 80 186 3.0 6.0 0.00 0.05 0.05 81 1002.0
20260903221546 80 174 4.0 7.0 0.00 0.05 0.05 80 1002.0
20260903220646 81 186 3.0 7.0 0.00 0.05 0.05 79 1002.0
20260903215746 81 222 2.0 4.0 0.00 0.05 0.05 76 1001.9
20260903214846 80 269 2.0 4.0 0.00 0.05 0.05 76 1002.0
20260903213946 80 278 2.0 4.0 0.00 0.05 0.05 76 1002.0
20260903213046 80 295 4.0 6.0 0.00 0.05 0.05 77 1002.0
20260903210346 81 276 3.0 6.0 0.00 0.05 0.05 76 1001.8
20260903205446 80 279 4.0 7.0 0.00 0.05 0.05 77 1002.0
20260903204546 80 281 6.0 10.0 0.00 0.06 0.05 76 1002.0
20260903203646 80 272 5.0 10.0 0.00 0.09 0.05 75 1002.0
20260903202746 80 281 4.0 10.0 0.00 0.10 0.05 75 1002.0
20260903201846 80 282 5.0 9.0 0.00 0.11 0.05 76 1002.0
20260903200946 79 282 7.0 10.0 0.00 0.20 0.05 79 1002.0
20260903200046 79 283 5.0 9.0 0.00 0.28 0.05 79 1002.2
20260903194246 79 286 8.0 12.0 0.00 0.42 0.05 77 1002.3
20260903193346 79 285 8.0 13.0 0.00 0.47 0.05 78 1002.3
20260903192446 79 293 8.0 13.0 0.00 0.47 0.05 78 1002.4
20260903190646 78 293 11.0 17.0 0.00 0.47 0.05 78 1002.6
20260903185746 78 284 14.0 20.0 0.00 0.47 0.05 79 1002.6
20260903184846 78 287 14.0 19.0 0.00 0.47 0.05 79 1002.6
20260903183946 78 287 11.0 21.0 0.00 0.47 0.05 79 1002.6
20260903183046 78 289 12.0 18.0 0.00 0.47 0.05 80 1002.6
20260903182146 78 289 15.0 22.0 0.00 0.47 0.05 80 1002.6
20260903181247 77 288 15.0 24.0 0.00 0.47 0.05 80 1002.8
20260903180346 77 286 17.0 23.0 0.00 0.47 0.05 80 1002.8
20260903175446 77 292 16.0 24.0 0.00 0.47 0.05 80 1003.0
20260903174546 76 291 18.0 26.0 0.00 0.47 0.05 80 1003.0
20260903173646 76 288 15.0 24.0 0.00 0.47 0.05 81 1002.9
20260903171846 76 294 12.0 19.0 0.00 0.47 0.05 83 1003.1
20260903170946 76 289 13.0 20.0 0.00 0.47 0.05 84 1003.1
20260903170046 75 296 15.0 21.0 0.00 0.47 0.05 85 1003.2
20260903165147 75 295 13.0 18.0 0.00 0.47 0.05 85 1003.2
20260903164246 75 295 13.0 17.0 0.00 0.47 0.05 85 1003.1
20260903163346 75 295 14.0 18.0 0.00 0.47 0.05 86 1003.2
20260903162446 74 292 14.0 19.0 0.00 0.47 0.05 88 1003.4
20260903160646 76 286 8.0 18.0 0.00 0.47 0.05 86 1003.6
20260903155746 75 283 9.0 17.0 0.00 0.47 0.05 87 1003.7
20260903154846 74 285 10.0 16.0 0.00 0.47 0.05 87 1003.7
20260903153048 74 275 10.0 18.0 0.00 0.47 0.05 88 1003.6
20260903152147 74 270 8.0 17.0 0.00 0.47 0.05 87 1003.7
20260903151246 74 259 6.0 13.0 0.00 0.47 0.05 89 1004.1
20260903145446 73 259 7.0 15.0 0.00 0.47 0.05 90 1004.1
20260903144546 73 249 9.0 17.0 0.00 0.47 0.05 89 1004.0
20260903143646 73 244 7.0 15.0 0.00 0.47 0.05 89 1003.8
20260903142746 73 247 7.0 13.0 0.00 0.47 0.05 91 1004.0
20260903141846 72 239 7.0 14.0 0.00 0.47 0.05 91 1004.2
20260903140946 72 238 8.0 14.0 0.00 0.47 0.05 92 1004.2
20260903140047 71 220 6.0 12.0 0.00 0.47 0.05 94 1004.0
20260903135146 70 228 7.0 12.0 0.00 0.47 0.05 95 1004.2
20260903133346 70 232 6.0 11.0 0.00 0.47 0.05 96 1004.3
20260903132446 70 259 5.0 9.0 0.00 0.47 0.05 96 1004.6
20260903130646 70 250 5.0 11.0 0.00 0.47 0.05 96 1004.7
20260903124846 70 243 5.0 10.0 0.00 0.47 0.05 97 1004.8
20260903123946 69 275 5.0 9.0 0.00 0.47 0.05 97 1004.9
20260903123046 69 262 5.0 10.0 0.00 0.47 0.05 97 1005.1
20260903121246 69 270 4.0 9.0 0.00 0.47 0.05 98 1005.1
20260903120346 69 243 4.0 7.0 0.00 0.47 0.05 98 1004.9
20260903115446 69 247 4.0 7.0 0.00 0.47 0.05 98 1005.0
20260903113647 69 234 6.0 9.0 0.00 0.47 0.05 98 1005.1
20260903112746 69 235 7.0 9.0 0.00 0.47 0.05 98 1005.0
20260903110946 69 276 6.0 11.0 0.00 0.47 0.05 98 1005.3
20260903105146 69 268 7.0 15.0 0.00 0.47 0.05 98 1005.5
20260903104246 69 250 6.0 11.0 0.00 0.47 0.05 98 1005.0
20260903102446 69 249 6.0 12.0 0.00 0.47 0.05 98 1004.8
20260903101546 69 281 6.0 11.0 0.00 0.47 0.05 98 1004.8
20260903100646 69 263 5.0 14.0 0.00 0.47 0.05 98 1004.7
20260903095746 69 254 7.0 13.0 0.00 0.47 0.05 98 1004.6
20260903093946 69 231 10.0 13.0 0.00 0.47 0.05 98 1004.2
20260903093046 69 223 9.0 13.0 0.00 0.47 0.05 98 1004.1
20260903091246 68 229 9.0 13.0 0.00 0.47 0.05 98 1004.1
20260903090346 68 228 8.0 13.0 0.00 0.47 0.05 98 1004.3
20260903084546 68 212 6.0 11.0 0.00 0.47 0.05 98 1004.5
20260903082746 68 209 5.0 9.0 0.01 0.47 0.05 98 1004.6
20260903081846 68 218 7.0 11.0 0.01 0.47 0.05 98 1004.8
20260903080946 68 226 6.0 9.0 0.01 0.47 0.05 98 1005.0
20260903080046 68 244 4.0 7.0 0.01 0.47 0.05 98 1005.2
20260903073346 68 285 8.0 11.0 0.00 0.46 0.04 98 1005.8
20260903072446 68 283 7.0 11.0 0.00 0.46 0.04 98 1005.8
20260903071546 68 283 5.0 9.0 0.00 0.46 0.04 97 1005.6
20260903070646 68 290 8.0 10.0 0.01 0.46 0.04 97 1005.5
20260903065746 68 295 6.0 10.0 0.01 0.46 0.04 97 1005.5
20260903063946 68 160 3.0 7.0 0.02 0.46 0.04 96 1005.3
20260903063046 68 157 4.0 10.0 0.03 0.46 0.04 96 1005.4
20260903062146 68 161 7.0 13.0 0.04 0.46 0.04 96 1005.5
20260903061245 68 166 9.0 14.0 0.04 0.46 0.04 96 1005.5
20260903060346 68 169 7.0 11.0 0.03 0.45 0.03 96 1006.2
20260903054546 68 212 3.0 8.0 0.02 0.44 0.02 96 1006.5
20260903053646 68 212 3.0 7.0 0.01 0.43 0.01 96 1006.9
20260903052746 68 160 4.0 8.0 0.00 0.42 0.00 95 1006.9
20260903051846 68 160 5.0 7.0 0.00 0.42 0.00 95 1007.1
20260903050946 68 152 3.0 9.0 0.00 0.42 0.00 94 1007.1
20260903050046 68 160 2.0 9.0 0.00 0.42 0.00 94 1007.0
20260903045146 68 156 3.0 9.0 0.00 0.42 0.00 94 1007.1
20260903044246 68 143 2.0 7.0 0.00 0.42 0.00 94 1007.2
20260903043346 68 130 4.0 9.0 0.00 0.42 0.00 94 1007.2
20260903042447 68 148 3.0 8.0 0.00 0.42 0.00 94 1007.4
20260903040646 68 135 2.0 8.0 0.00 0.42 0.00 95 1007.6
20260903035746 67 144 2.0 11.0 0.00 0.42 0.00 95 1007.5
20260903034846 67 129 2.0 8.0 0.00 0.42 0.00 95 1007.4
20260903033946 67 135 7.0 12.0 0.00 0.42 0.00 96 1007.2
20260903033046 67 135 6.0 12.0 0.00 0.42 0.00 95 1007.3
20260903032146 67 137 6.0 11.0 0.00 0.42 0.00 95 1007.5
20260903031246 67 138 6.0 11.0 0.00 0.42 0.00 95 1007.6
20260903030346 67 136 7.0 12.0 0.00 0.42 0.00 96 1007.9
20260903025446 67 135 10.0 15.0 0.00 0.42 0.00 95 1008.0
20260903024546 66 131 10.0 14.0 0.00 0.42 0.00 95 1007.8
20260903023646 66 131 10.0 15.0 0.00 0.42 0.00 95 1008.0
20260903022747 66 128 10.0 14.0 0.00 0.42 0.00 95 1007.7
20260903021846 66 128 10.0 14.0 0.00 0.42 0.00 95 1007.8
20260903020946 66 134 10.0 13.0 0.00 0.42 0.00 95 1007.9
20260903020046 66 129 8.0 12.0 0.00 0.42 0.00 95 1008.1
20260903015146 66 126 7.0 13.0 0.00 0.42 0.00 95 1008.4
20260903014245 66 130 10.0 14.0 0.00 0.42 0.00 94 1008.1
20260903013346 66 130 11.0 15.0 0.00 0.42 0.00 94 1008.3
20260903012446 66 132 10.0 14.0 0.00 0.42 0.00 94 1008.2
20260903011546 66 128 9.0 13.0 0.00 0.42 0.00 94 1008.5
20260903010646 66 126 7.0 11.0 0.00 0.42 0.00 94 1008.8
20260903005746 66 128 5.0 8.0 0.00 0.42 0.00 94 1009.3
20260903004846 66 130 7.0 10.0 0.00 0.42 0.00 94 1009.1
20260903003946 66 127 7.0 12.0 0.00 0.42 0.00 94 1008.7